Simultaneous Nadir Overpasses (SNOs) Predictions

Prediction of SNOs between AQUA and NPP Satellite Orbit:

Table of predicted SNOs for the next 14.0 days since TLE Epoch: 12/28/2013
Index Date (AQUA) Time (AQUA) Lat,Lon (AQUA) SZA (AQUA ) Date (NPP) Time (NPP) Lat,Lon (NPP) SZA (NPP ) Distance(km) Time Diff (sec)
1 12/28/2013 21:00:53 -72.78, -83.66 56.75 12/28/2013 21:00:30 -72.79, -83.61 56.74 1.99 23
2 12/28/2013 21:49:45 74.52, 87.76 121.49 12/28/2013 21:50:39 74.53, 87.84 121.41 2.67 54
3 12/31/2013 12:28:29 70.89,-138.69 125.02 12/31/2013 12:27:20 70.88,-138.73 125.11 1.59 69
4 12/31/2013 13:17:13 -73.23, 33.11 57.29 12/31/2013 13:17:20 -73.23, 33.11 57.30 0.10 7
5 01/03/2014 04:44:40 71.80, -21.31 123.99 01/03/2014 04:44:01 71.80, -21.34 124.05 1.24 39
6 01/03/2014 05:33:27 -73.95, 150.55 58.17 01/03/2014 05:34:04 -73.96, 150.58 58.22 1.09 37
7 01/05/2014 21:00:44 72.99, 96.77 122.61 01/05/2014 21:00:35 73.00, 96.83 122.60 2.05 9
8 01/05/2014 21:49:46 -74.33, -92.68 58.77 01/05/2014 21:50:54 -74.33, -92.70 58.83 0.67 68
9 01/08/2014 12:28:09 -71.75, 42.74 56.40 01/08/2014 12:27:14 -71.76, 42.81 56.37 2.67 55




NCC Satellite Simultaneous Nadir Overpasses (SNOs) Prediction Service
